Location: DARK SKY Beskydy - Park tmavé oblohy, www.darkskybeskydy.cz
(49.4926°N, 18.5016°E)
Time: 18:04:44
(UTC+02:00)

PCSat - Pass Details

Date: 06 August 2024
Orbit: 781 x 793 km, 67.1° (Epoch: 08 September)

Event Time Altitude Azimuth Distance (km) Brightness Sun altitude
Rises 23:10:10 0° 309° (NW) 3,296 13.9 -20.4°
Reaches altitude 10° 23:14:21 10° 340° (NNW) 2,368 13.2 -20.7°
Maximum altitude 23:16:25 12° 3° (N) 2,224 12.7 -20.8°
Drops below altitude 10° 23:18:30 10° 26° (NNE) 2,369 12.6 -21.0°
Sets 23:22:40 0° 57° (ENE) 3,298 12.9 -21.2°
